Weather History for Tarapoto, Peru

Change the Weather History Date:

Friday, February 22, 2013

  Actual Average Record
Temperature  
Mean Temperature 82 °F -  
Max Temperature 91 °F 90 °F - ()
Min Temperature 72 °F 68 °F - ()
Cooling Degree Days 16    
Growing Degree Days 32 (Base 50)    
Moisture  
Dew Point 72 °F    
Average Humidity 72    
Maximum Humidity 97    
Minimum Humidity 53    
Precipitation  
Precipitation 0.00 in 0.17 in - ()
Sea Level Pressure  
Sea Level Pressure 29.91 in    
Wind  
Wind Speed 2 mph ()    
Max Wind Speed 17 mph    
Max Gust Speed -    
Visibility 5.4 miles    
Events Rain    
T = Trace of Precipitation, MM = Missing Value Source: Averaged Metar Reports

Daily Weather History Graph

Daily Weather History Graph

Search for Another Location

Airport:

Trip Planner

Search our weather history database for the weather conditions in past years. The results will help you decide how hot, cold, wet, or windy it might be!

Date:

Astronomy

Feb. 22, 2013 Rise Set
Actual Time 6:10 AM PET 6:26 PM PET
Civil Twilight 5:49 AM PET 6:47 PM PET
Nautical Twilight 5:25 AM PET 7:12 PM PET
Astronomical Twilight 5:00 AM PET 7:37 PM PET
Moon 4:03 PM PET (2/22) 3:22 AM PET (2/22)
Length of Visible Light 12h 58m
Length of Day
12h 15m
Waxing Gibbous, 90% of the Moon is Illuminated
Feb 22
Waxing Gibbous
Feb 25
Full
Mar 4
Last Quarter
Mar 11
New
Mar 19
First Quarter

Hourly Weather History & Observations

Time (PET) Temp. Heat Index Dew Point Humidity Pressure Visibility Wind Dir Wind Speed Gust Speed Precip Events Conditions
6:00 AM 73.4 °F - 69.8 °F 88% 29.86 in 6.2 mi Calm Calm - N/A   Mostly Cloudy
7:00 AM 75 °F - 71 °F 84% 30.08 in 6 mi Calm Calm - -   Partly Cloudy
7:00 AM 75.2 °F - 71.6 °F 89% 29.89 in 6.2 mi Calm Calm - N/A   Mostly Cloudy
8:00 AM 78.8 °F - 71.6 °F 78% 29.92 in 6.2 mi Calm Calm - N/A   Mostly Cloudy
9:00 AM 80.6 °F 84.6 °F 71.6 °F 74% 29.92 in 6.2 mi Calm Calm - N/A   Mostly Cloudy
10:00 AM 82 °F - 72 °F 66% 29.99 in 6 mi Calm Calm - -   Partly Cloudy
10:00 AM 82.4 °F 87.2 °F 71.6 °F 70% 29.95 in 6.2 mi Calm Calm - N/A   Mostly Cloudy
11:00 AM 84.2 °F 90.9 °F 73.4 °F 70% 29.95 in 6.2 mi Calm Calm - N/A   Mostly Cloudy
12:00 PM 86.0 °F 93.4 °F 73.4 °F 66% 29.92 in 6.2 mi Calm Calm - N/A   Mostly Cloudy
1:00 PM 87 °F - 73 °F 55% 30.07 in 6 mi ESE 3.5 mph - -   Partly Cloudy
1:00 PM 87.8 °F 95.6 °F 73.4 °F 62% 29.89 in 6.2 mi ESE 3.5 mph - N/A   Mostly Cloudy
2:00 PM 89.6 °F 98.2 °F 73.4 °F 59% 29.83 in 6.2 mi SSE 4.6 mph - N/A   Scattered Clouds
3:00 PM 91.4 °F 102.5 °F 75.2 °F 59% 29.77 in 6.2 mi South 4.6 mph - N/A   Scattered Clouds
4:00 PM 89 °F - 74 °F 53% 29.94 in 3 mi East 3.5 mph - -   Partly Cloudy
4:00 PM 89.6 °F 98.2 °F 73.4 °F 59% 29.77 in 6.2 mi East 3.5 mph - N/A   Mostly Cloudy
5:00 PM 87.8 °F 95.6 °F 73.4 °F 62% 29.77 in 6.2 mi East 3.5 mph - N/A   Mostly Cloudy
6:00 PM 86.0 °F 91.8 °F 71.6 °F 62% 29.77 in 6.2 mi Variable 1.2 mph - N/A   Mostly Cloudy
7:00 PM 84 °F - 72 °F 59% 30.01 in 6 mi 1.2 mph - -   Partly Cloudy
7:00 PM 84.2 °F 89.6 °F 71.6 °F 66% 29.83 in 6.2 mi Variable 1.2 mph - N/A   Mostly Cloudy
8:00 PM 82.4 °F 87.2 °F 71.6 °F 70% 29.86 in 6.2 mi SW 6.9 mph - N/A   Mostly Cloudy
8:25 PM 80.6 °F 84.6 °F 71.6 °F 74% 29.89 in 5.0 mi NNW 6.9 mph - N/A Rain Light Rain
8:40 PM 77.0 °F - 73.4 °F 89% 29.92 in 2.5 mi NNE 17.3 mph - N/A Rain Rain
9:00 PM 73.4 °F - 71.6 °F 94% 29.92 in 1.9 mi NNE 10.4 mph - N/A Rain Rain
10:00 PM 72 °F - 71 °F 97% 30.16 in 2 mi 2.3 mph - - Rain Light Rain
10:00 PM 73.4 °F - 71.6 °F 94% 29.95 in 2.5 mi Variable 2.3 mph - N/A Rain Light Rain